Weather History for KDDH - September, 2013

Nearest airport to NA, NA.

See history from more local stations
Change the Weather History Date:

Monday, September 9, 2013

  Actual Average Record
Temperature  
Mean Temperature 53 °F 61 °F  
Max Temperature 69 °F 73 °F 88 °F (2002)
Min Temperature 36 °F 50 °F 36 °F (2013)
Degree Days  
Heating Degree Days 12 5  
Month to date heating degree days 53 34  
Since 1 July heating degree days 116 106  
Cooling Degree Days 0 1  
Month to date cooling degree days 20 13  
Year to date cooling degree days 479 301  
Growing Degree Days 2 (Base 50)    
Moisture  
Dew Point 42 °F    
Average Humidity 66    
Maximum Humidity 92    
Minimum Humidity 39    
Precipitation  
Precipitation 0.00 in 0.11 in 1.18 in (2008)
Month to date precipitation 0.70 0.94  
Year to date precipitation 32.42 28.48  
Sea Level Pressure  
Sea Level Pressure 30.17 in    
Wind  
Wind Speed 2 mph (South)    
Max Wind Speed 10 mph    
Max Gust Speed 15 mph    
Visibility 9 miles    
Events      
T = Trace of Precipitation, MM = Missing Value Source: NWS Daily Summary

Daily Weather History Graph

Daily Weather History Graph

Search for Another Location

Airport or City:

Trip Planner

Search our weather history database for the weather conditions in past years. The results will help you decide how hot, cold, wet, or windy it might be!

Date:

Astronomy

Sep. 09, 2013 Rise Set
Actual Time 6:26 AM EDT 7:13 PM EDT
Civil Twilight 5:57 AM EDT 7:41 PM EDT
Nautical Twilight 5:23 AM EDT 8:15 PM EDT
Astronomical Twilight 4:48 AM EDT 8:51 PM EDT
Moon 10:52 AM EDT (9/9) 9:19 PM EDT (9/9)
Length of Visible Light 13h 44m
Length of Day
12h 46m
Waxing Crescent, 19% of the Moon is Illuminated
Sep 9
Waxing Crescent
Sep 12
First Quarter
Sep 19
Full
Sep 26
Last Quarter
Oct 4
New

Hourly Weather History & Observations

Time (EDT) Temp. Windchill Dew Point Humidity Pressure Visibility Wind Dir Wind Speed Gust Speed Precip Events Conditions
12:54 AM 41.0 °F - 37.9 °F 89% 30.14 in 10.0 mi Calm Calm - N/A   Clear
1:54 AM 39.9 °F - 37.9 °F 93% 30.14 in 10.0 mi Calm Calm - N/A   Clear
2:04 AM 39.2 °F - 37.4 °F 93% 30.14 in 7.0 mi Calm Calm - N/A   Scattered Clouds
2:15 AM 39.2 °F - 39.2 °F 100% 30.14 in 1.8 mi Calm Calm - N/A   Scattered Clouds
2:20 AM 39.2 °F - 37.4 °F 93% 30.14 in 4.0 mi Calm Calm - N/A   Scattered Clouds
2:54 AM 39.0 °F - 37.0 °F 93% 30.15 in 5.0 mi Calm Calm - N/A   Clear
3:54 AM 37.9 °F - 36.0 °F 93% 30.17 in 10.0 mi Calm Calm - N/A   Clear
4:54 AM 37.9 °F - 35.1 °F 89% 30.19 in 10.0 mi Calm Calm - N/A   Clear
5:54 AM 37.0 °F - 35.1 °F 93% 30.20 in 9.0 mi Calm Calm - N/A   Clear
6:54 AM 37.0 °F 33.3 °F 36.0 °F 96% 30.23 in 10.0 mi SSE 4.6 mph - N/A   Clear
7:54 AM 44.1 °F - 41.0 °F 89% 30.25 in 10.0 mi Calm Calm - N/A   Clear
8:54 AM 51.1 °F - 44.1 °F 77% 30.25 in 10.0 mi Calm Calm - N/A   Clear
9:54 AM 55.9 °F - 44.1 °F 64% 30.24 in 10.0 mi Calm Calm - N/A   Clear
10:54 AM 60.1 °F - 41.0 °F 49% 30.23 in 10.0 mi South 5.8 mph - N/A   Clear
11:54 AM 62.1 °F - 42.1 °F 48% 30.22 in 10.0 mi Calm Calm - N/A   Clear
12:54 PM 63.0 °F - 41.0 °F 45% 30.19 in 10.0 mi SSW 4.6 mph - N/A   Clear
1:54 PM 64.9 °F - 44.1 °F 47% 30.19 in 10.0 mi WSW 3.5 mph - N/A   Clear
2:54 PM 66.0 °F - 42.1 °F 42% 30.17 in 10.0 mi Variable 3.5 mph - N/A   Clear
3:54 PM 68.0 °F - 43.0 °F 40% 30.16 in 10.0 mi Variable 4.6 mph - N/A   Clear
4:54 PM 68.0 °F - 45.0 °F 43% 30.14 in 10.0 mi South 5.8 mph - N/A   Clear
5:54 PM 64.9 °F - 46.9 °F 52% 30.14 in 10.0 mi SSE 3.5 mph - N/A   Clear
6:54 PM 62.1 °F - 48.0 °F 60% 30.13 in 10.0 mi SSW 4.6 mph - N/A   Clear
7:54 PM 61.0 °F - 46.9 °F 60% 30.13 in 10.0 mi SSE 5.8 mph - 0.00 in   Clear
8:54 PM 57.9 °F - 48.0 °F 70% 30.13 in 10.0 mi Variable 4.6 mph - N/A   Clear
9:54 PM 55.9 °F - 48.0 °F 75% 30.12 in 10.0 mi Calm Calm - N/A   Clear
10:54 PM 55.0 °F - 50.0 °F 83% 30.12 in 10.0 mi Calm Calm - N/A   Mostly Cloudy
11:54 PM 54.0 °F - 50.0 °F 86% 30.11 in 10.0 mi Calm Calm - N/A   Clear